period_start,C,m1,H,J0,J1,J2,J3,J4,J5,JA,JB,JC,JD,JJ,JK,JN,#
2017-08-28 00:02:30,0.01,1.74,0.00,20.29,24.45,27.47,14.15,44.59,1021.49,2044.87,2933.79,2615.90,3005.99,599.97,604.28,49.29,0000 0000 0000 0000 000000
2017-08-28 00:07:31,-0.01,1.74,0.00,20.28,24.45,27.48,14.11,44.91,1021.46,2044.71,2933.80,2615.94,3005.99,600.15,604.63,49.34,0000 0000 0000 0000 000000
2017-08-28 00:12:32,0.01,1.74,0.00,20.27,24.45,27.51,14.15,44.90,1021.49,2044.78,2933.70,2615.90,3005.99,599.71,604.24,49.39,0000 0000 0000 0000 000000
2017-08-28 00:17:34,0.02,1.74,0.00,20.28,24.45,27.51,14.20,44.77,1021.50,2044.87,2933.13,2615.69,3005.98,600.10,604.71,49.44,0000 0000 0000 0000 000000
2017-08-28 00:22:35,0.01,1.74,0.00,20.29,24.45,27.50,14.15,44.77,1021.48,2044.93,2933.01,2615.49,3005.98,600.21,604.63,49.49,0000 0000 0000 0000 000000
2017-08-28 00:27:36,-0.01,1.74,0.00,20.29,24.45,27.50,14.05,44.76,1021.46,2044.93,2933.04,2615.69,3005.99,599.69,604.00,49.54,0000 0000 0000 0000 000000
2017-08-28 00:32:38,-0.01,1.74,0.00,20.32,24.45,27.49,14.16,44.88,1021.40,2044.94,2933.14,2615.80,3005.99,599.90,604.26,49.59,0000 0000 0000 0000 000000
2017-08-28 00:37:39,0.01,1.74,0.00,20.32,24.45,27.48,14.18,44.89,1021.39,2044.97,2933.04,2615.72,3005.99,599.81,604.17,49.64,0000 0000 0000 0000 000000
2017-08-28 00:42:41,0.00,1.74,0.00,20.32,24.45,27.49,14.15,44.86,1021.40,2044.97,2933.01,2615.59,3005.98,600.09,604.36,49.69,0000 0000 0000 0000 000000
2017-08-28 00:47:42,-0.01,1.74,0.00,20.32,24.45,27.50,14.11,44.83,1021.30,2044.98,2933.06,2615.83,3005.99,600.02,604.17,49.74,0000 0000 0000 0000 000000
2017-08-28 00:52:44,-0.01,1.74,0.00,20.33,24.45,27.48,14.16,44.88,1021.16,2044.98,2933.49,2615.96,3005.99,600.03,604.20,49.79,0000 0000 0000 0000 000000
2017-08-28 00:57:45,0.01,1.74,0.00,20.32,24.45,27.50,14.09,44.92,1021.09,2044.95,2933.47,2615.91,3005.99,599.75,603.84,49.84,0000 0000 0000 0000 000000
2017-08-28 01:02:46,0.00,1.74,0.00,20.30,24.45,27.50,14.16,44.89,1021.07,2044.94,2933.24,2615.87,3005.98,599.91,604.06,49.89,0000 0000 0000 0000 000000
2017-08-28 01:07:48,0.02,1.74,0.00,20.31,24.45,27.50,14.08,44.90,1021.02,2044.96,2933.04,2615.66,3005.98,599.87,603.87,49.94,0000 0000 0000 0000 000000
2017-08-28 01:12:49,-0.00,1.74,0.00,20.33,24.45,27.49,14.18,45.08,1021.04,2044.96,2933.01,2615.54,3005.98,600.14,604.28,49.99,0000 0000 0000 0000 000000
2017-08-28 01:17:50,-0.00,1.74,0.00,20.34,24.45,27.47,14.05,44.90,1021.04,2044.94,2933.01,2615.50,3005.98,599.43,603.54,50.04,0000 0000 0000 0000 000000
2017-08-28 01:22:52,0.01,1.74,0.00,20.36,24.46,27.47,14.11,44.83,1021.02,2044.93,2933.00,2615.29,3005.92,599.89,603.93,50.09,0000 0000 0000 0000 000000
2017-08-28 01:27:53,-0.00,1.74,0.00,20.38,24.47,27.44,14.13,44.96,1021.02,2044.92,2932.99,2615.11,3005.76,600.07,604.10,50.14,0000 0000 0000 0000 000000
2017-08-28 01:32:54,-0.01,1.74,0.00,20.39,24.47,27.45,14.15,44.99,1021.02,2044.87,2932.99,2615.16,3005.86,600.03,603.99,50.19,0000 0000 0000 0000 000000
2017-08-28 01:37:56,0.01,1.74,0.00,20.42,24.47,27.43,14.07,44.95,1021.02,2044.82,2933.00,2615.10,3005.73,600.00,603.89,50.25,0000 0000 0000 0000 000000
2017-08-28 01:42:57,0.01,1.74,0.00,20.44,24.48,27.41,14.10,44.83,1021.01,2044.92,2932.99,2615.05,3005.55,599.85,603.70,50.30,0000 0000 0000 0000 000000
2017-08-28 01:47:58,0.01,1.74,0.00,20.45,24.50,27.42,14.07,44.73,1021.01,2044.91,2932.97,2615.02,3005.24,599.93,603.71,50.35,0000 0000 0000 0000 000000
2017-08-28 01:53:00,-0.00,1.74,0.00,20.47,24.50,27.41,14.10,44.93,1021.01,2044.89,2932.96,2615.02,3005.06,599.88,603.67,50.40,0000 0000 0000 0000 000000
2017-08-28 01:58:01,-0.00,1.74,0.00,20.47,24.51,27.41,14.16,45.03,1021.01,2044.76,2932.70,2615.00,3005.03,599.97,603.65,50.45,0000 0000 0000 0000 000000
2017-08-28 02:03:03,-0.01,1.74,0.00,20.49,24.52,27.44,14.06,44.86,1021.01,2044.70,2932.63,2615.00,3005.01,599.78,603.57,50.50,0000 0000 0000 0000 000000
2017-08-28 02:08:04,-0.05,1.74,0.00,20.50,24.52,27.45,14.09,44.81,1021.01,2044.18,2932.83,2615.00,3005.00,599.89,603.64,50.55,0000 0000 0000 0000 000000
2017-08-28 02:13:05,0.02,1.74,0.00,20.49,24.53,27.50,14.14,44.80,1021.01,2044.15,2932.36,2615.00,3005.00,599.87,603.59,50.60,0000 0000 0000 0000 000000
2017-08-28 02:18:06,-0.01,1.74,0.00,20.50,24.55,27.51,14.10,44.84,1021.01,2044.09,2932.02,2614.99,3004.99,600.16,603.73,50.65,0000 0000 0000 0000 000000
2017-08-28 02:23:08,-0.00,1.74,0.00,20.52,24.55,27.51,14.12,45.06,1021.01,2044.04,2932.04,2614.98,3004.99,599.99,603.67,50.70,0000 0000 0000 0000 000000
2017-08-28 02:28:09,-0.00,1.74,0.00,20.52,24.56,27.50,14.16,44.92,1021.00,2044.02,2932.04,2614.97,3004.99,600.31,603.86,50.75,0000 0000 0000 0000 000000
2017-08-28 02:33:10,-0.00,1.74,0.00,20.53,24.57,27.52,14.16,45.14,1021.01,2044.02,2932.06,2614.96,3004.98,600.13,603.71,50.80,0000 0000 0000 0000 000000
2017-08-28 02:38:12,0.00,1.74,0.00,20.55,24.57,27.50,14.07,44.92,1021.01,2044.01,2932.01,2614.96,3004.94,599.64,603.24,50.85,0000 0000 0000 0000 000000
2017-08-28 02:43:13,0.00,1.74,0.00,20.57,24.59,27.51,14.06,44.94,1021.00,2044.01,2932.00,2614.87,3004.81,599.73,603.29,50.90,0000 0000 0000 0000 000000
2017-08-28 02:48:14,0.01,1.74,0.00,20.58,24.60,27.50,14.13,44.95,1021.01,2044.01,2931.99,2614.72,3004.53,600.09,603.43,50.95,0000 0000 0000 0000 000000
2017-08-28 02:53:15,-0.01,1.74,0.00,20.60,24.60,27.52,14.17,44.95,1021.01,2044.00,2931.99,2614.73,3004.56,600.07,603.57,51.00,0000 0000 0000 0000 000000
2017-08-28 02:58:16,0.03,1.74,0.00,20.62,24.62,27.49,14.04,45.28,1021.00,2044.00,2931.98,2614.23,3004.11,599.44,602.94,51.05,0000 0000 0000 0000 000000
2017-08-28 03:03:17,0.00,1.74,0.00,20.63,24.62,27.50,14.02,44.99,1021.00,2044.00,2931.98,2614.09,3004.02,599.56,603.14,51.10,0000 0000 0000 0000 000000
2017-08-28 03:08:18,0.00,1.74,0.00,20.65,24.64,27.55,14.09,44.94,1020.97,2044.00,2931.95,2614.08,3004.01,599.92,603.17,51.15,0000 0000 0000 0000 000000
2017-08-28 03:13:20,0.00,1.74,0.00,20.65,24.65,27.56,14.11,44.97,1020.92,2044.00,2931.84,2614.03,3004.00,599.94,603.27,51.21,0000 0000 0000 0000 000000
2017-08-28 03:18:21,0.00,1.74,0.00,20.67,24.67,27.50,14.10,45.07,1020.77,2044.00,2931.51,2614.01,3004.00,600.00,603.17,51.26,0000 0000 0000 0000 000000
2017-08-28 03:23:22,0.01,1.74,0.00,20.67,24.67,27.52,14.07,45.13,1020.60,2044.00,2931.18,2614.00,3003.99,599.70,602.76,51.31,0000 0000 0000 0000 000000
2017-08-28 03:28:24,0.00,1.74,0.00,20.66,24.69,27.58,14.14,45.17,1020.54,2043.99,2931.03,2614.00,3003.98,600.28,603.39,51.36,0000 0000 0000 0000 000000
2017-08-28 03:33:25,0.00,1.74,0.00,20.64,24.70,27.64,14.12,44.87,1020.55,2043.98,2931.00,2613.99,3003.97,599.95,603.16,51.41,0000 0000 0000 0000 000000
2017-08-28 03:38:26,0.00,1.74,0.00,20.60,24.70,27.74,14.15,44.99,1020.54,2043.98,2931.01,2613.99,3003.95,600.33,603.47,51.46,0000 0000 0000 0000 000000
2017-08-28 03:43:27,0.00,1.74,0.00,20.59,24.71,27.75,14.12,45.09,1020.55,2043.97,2931.00,2613.99,3003.79,600.09,603.28,51.51,0000 0000 0000 0000 000000
2017-08-28 03:48:29,0.01,1.74,0.00,20.59,24.72,27.77,14.17,45.11,1020.53,2043.97,2930.98,2613.98,3003.34,599.95,603.31,51.56,0000 0000 0000 0000 000000
2017-08-28 03:53:30,0.00,1.74,0.00,20.59,24.72,27.75,14.11,45.00,1020.53,2043.98,2930.93,2613.96,3003.16,599.55,602.74,51.61,0000 0000 0000 0000 000000
2017-08-28 03:58:32,0.01,1.74,0.00,20.68,24.72,27.74,14.02,44.85,1020.52,2043.98,2930.60,2613.96,3003.06,599.63,602.65,51.66,0000 0000 0000 0000 000000
2017-08-28 04:03:33,0.00,1.74,0.00,20.80,24.72,27.65,14.05,44.86,1020.52,2043.98,2930.47,2613.85,3003.03,600.29,603.14,51.71,0000 0000 0000 0000 000000
2017-08-28 04:08:34,-0.00,1.74,0.00,20.89,24.74,27.49,14.16,44.88,1020.52,2043.98,2930.83,2613.89,3003.03,600.03,602.51,51.76,0000 0000 0000 0000 000000
2017-08-28 04:13:35,0.02,1.74,0.00,20.99,24.75,27.41,14.00,44.72,1020.52,2043.95,2930.29,2613.43,3003.00,599.81,602.10,51.81,0000 0000 0000 0000 000000
2017-08-28 04:18:37,-0.00,1.74,0.00,21.10,24.77,27.40,14.00,44.83,1020.52,2043.83,2930.05,2613.11,3002.99,600.07,602.23,51.86,0000 0000 0000 0000 000000
2017-08-28 04:23:38,-0.01,1.74,0.00,21.21,24.79,27.40,14.07,44.76,1020.52,2043.78,2930.03,2613.05,3002.98,600.14,602.09,51.91,0000 0000 0000 0000 000000
2017-08-28 04:28:40,-0.05,1.74,0.00,21.35,24.82,27.43,14.03,44.83,1020.52,2043.18,2930.03,2613.01,3002.89,599.74,601.42,51.96,0000 0000 0000 0000 000000
2017-08-28 04:33:41,0.01,1.74,0.00,21.47,24.85,27.46,13.97,44.79,1020.52,2043.02,2929.99,2613.00,3002.26,599.77,601.11,52.01,0000 0000 0000 0000 000000
2017-08-28 04:38:42,-0.00,1.74,0.00,21.55,24.89,27.51,13.96,44.94,1020.51,2043.00,2929.95,2612.96,3002.01,600.14,601.46,52.06,0000 0000 0000 0000 000000
2017-08-28 04:43:43,0.04,1.74,0.00,21.56,24.93,27.56,14.00,44.76,1020.50,2043.00,2929.25,2612.34,3001.95,599.78,601.07,52.11,0000 0000 0000 0000 000000
2017-08-28 04:48:45,0.01,1.74,0.00,21.62,24.98,27.60,13.94,44.63,1020.52,2042.98,2929.01,2612.02,3001.46,599.85,600.96,52.17,0000 0000 0000 0000 000000
2017-08-28 04:53:46,-0.00,1.74,0.00,21.65,25.02,27.66,13.96,44.53,1020.52,2042.89,2928.99,2612.00,3001.02,599.83,600.88,52.22,0000 0000 0000 0000 000000
2017-08-28 04:58:48,-0.06,1.74,0.00,21.68,25.07,27.72,14.07,44.78,1020.52,2042.27,2928.96,2611.98,3001.00,600.29,601.28,52.27,0000 0000 0000 0000 000000
2017-08-28 05:03:49,0.01,1.74,0.00,21.72,25.11,27.77,14.03,44.79,1020.52,2042.02,2928.60,2611.73,3000.91,599.97,601.01,52.32,0000 0000 0000 0000 000000
2017-08-28 05:08:50,0.03,1.74,0.00,21.76,25.16,27.83,13.88,44.71,1020.53,2042.00,2928.10,2611.18,3000.23,599.75,600.72,52.37,0000 0000 0000 0000 000000
2017-08-28 05:13:51,0.00,1.74,0.00,21.81,25.21,27.88,13.99,44.63,1020.53,2042.00,2928.01,2611.01,3000.01,599.92,600.72,52.42,0000 0000 0000 0000 000000
2017-08-28 05:18:52,-0.01,1.74,0.00,21.84,25.26,27.93,14.03,44.76,1020.52,2041.95,2928.00,2611.00,3000.00,600.21,600.95,52.47,0000 0000 0000 0000 000000
2017-08-28 05:23:54,-0.04,1.74,0.00,21.88,25.30,27.98,13.99,44.62,1020.52,2041.51,2927.91,2610.94,2999.80,599.91,600.53,52.52,0000 0000 0000 0000 000000
2017-08-28 05:28:55,0.01,1.74,0.00,21.91,25.35,28.04,13.94,44.71,1020.52,2041.04,2927.32,2610.42,2999.11,599.93,600.43,52.57,0000 0000 0000 0000 000000
2017-08-28 05:33:56,0.01,1.74,0.00,21.95,25.40,28.08,13.97,44.68,1020.52,2041.00,2927.01,2610.02,2998.99,600.00,600.47,52.62,0000 0000 0000 0000 000000
2017-08-28 05:38:57,0.02,1.74,0.00,21.97,25.44,28.13,13.94,44.67,1020.52,2041.00,2926.73,2609.99,2998.61,600.09,600.55,52.67,0000 0000 0000 0000 000000
2017-08-28 05:43:59,0.01,1.74,0.00,22.01,25.49,28.19,13.95,44.59,1020.52,2040.96,2926.23,2609.89,2998.03,600.17,600.41,52.72,0000 0000 0000 0000 000000
2017-08-28 05:49:00,-0.04,1.74,0.00,22.04,25.53,28.22,14.02,44.83,1020.52,2040.49,2926.02,2609.19,2997.99,599.95,600.21,52.77,0000 0000 0000 0000 000000
2017-08-28 05:54:01,-0.01,1.74,0.00,22.08,25.58,28.27,14.02,44.73,1020.50,2040.06,2925.98,2609.01,2997.68,600.11,600.32,52.82,0000 0000 0000 0000 000000
2017-08-28 05:59:02,0.01,1.74,0.00,22.10,25.62,28.30,14.03,44.77,1020.50,2040.01,2925.54,2609.00,2997.09,600.14,600.24,52.87,0000 0000 0000 0000 000000
2017-08-28 06:04:04,0.01,1.74,0.00,22.13,25.66,28.34,13.98,44.91,1020.40,2040.00,2925.05,2608.92,2997.00,600.14,600.09,52.92,0000 0000 0000 0000 000000
2017-08-28 06:09:05,0.02,1.74,0.00,22.15,25.70,28.39,13.97,44.76,1020.43,2039.99,2925.00,2608.26,2996.88,599.81,599.76,52.97,0000 0000 0000 0000 000000
2017-08-28 06:14:06,0.00,1.74,0.00,22.18,25.74,28.43,14.02,44.82,1020.50,2039.93,2924.99,2608.02,2996.26,600.43,600.39,53.02,0000 0000 0000 0000 000000
2017-08-28 06:19:07,-0.06,1.74,0.00,22.22,25.78,28.47,14.00,44.85,1020.51,2039.35,2924.69,2608.00,2996.01,599.93,599.84,53.07,0000 0000 0000 0000 000000
2017-08-28 06:24:08,-0.00,1.74,0.00,22.25,25.82,28.51,13.96,44.77,1020.51,2039.03,2924.11,2607.99,2995.99,599.94,599.85,53.13,0000 0000 0000 0000 000000
2017-08-28 06:29:09,0.01,1.74,0.00,22.27,25.86,28.54,14.01,44.70,1020.52,2039.00,2924.00,2607.78,2995.77,599.81,599.63,53.18,0000 0000 0000 0000 000000
2017-08-28 06:34:11,0.03,1.74,0.00,22.29,25.90,28.58,14.03,44.67,1020.52,2039.00,2923.95,2607.10,2995.07,600.63,600.38,53.23,0000 0000 0000 0000 000000
2017-08-28 06:39:12,0.01,1.74,0.00,22.32,25.94,28.62,13.96,44.74,1020.49,2038.94,2923.48,2607.00,2995.00,600.03,599.81,53.28,0000 0000 0000 0000 000000
2017-08-28 06:44:13,-0.03,1.74,0.00,22.34,25.97,28.67,14.02,44.86,1020.46,2038.63,2923.04,2606.99,2994.90,600.11,599.71,53.33,0000 0000 0000 0000 000000
2017-08-28 06:49:15,-0.02,1.74,0.00,22.36,26.01,28.70,13.99,44.67,1020.47,2038.13,2923.00,2606.86,2994.34,600.03,599.67,53.38,0000 0000 0000 0000 000000
2017-08-28 06:54:16,0.01,1.74,0.00,22.40,26.04,28.74,13.96,44.58,1020.50,2038.02,2922.99,2606.37,2994.03,600.26,599.83,53.43,0000 0000 0000 0000 000000
2017-08-28 06:59:17,0.01,1.74,0.00,22.43,26.08,28.77,13.96,44.73,1020.47,2038.00,2922.94,2606.08,2994.00,599.89,599.36,53.48,0000 0000 0000 0000 000000
2017-08-28 07:04:19,0.02,1.74,0.00,22.44,26.11,28.78,13.92,44.88,1020.43,2037.99,2922.35,2606.00,2993.88,599.79,599.21,53.53,0000 0000 0000 0000 000000
2017-08-28 07:09:20,0.01,1.74,0.00,22.48,26.14,28.81,13.95,44.78,1020.38,2037.97,2922.02,2605.99,2993.31,599.71,599.01,53.58,0000 0000 0000 0000 000000
2017-08-28 07:14:21,-0.01,1.74,0.00,22.50,26.18,28.85,13.97,44.91,1020.40,2037.88,2922.00,2605.95,2993.02,599.91,599.21,53.63,0000 0000 0000 0000 000000
2017-08-28 07:19:22,-0.01,1.74,0.00,22.52,26.21,28.89,14.04,44.80,1020.41,2037.61,2921.97,2605.51,2993.00,600.54,599.69,53.68,0000 0000 0000 0000 000000
2017-08-28 07:24:24,-0.03,1.74,0.00,22.53,26.24,28.91,13.91,44.66,1020.41,2037.12,2921.80,2605.05,2992.99,599.96,599.22,53.73,0000 0000 0000 0000 000000
2017-08-28 07:29:25,0.02,1.74,0.00,22.56,26.27,28.95,13.97,44.88,1020.43,2037.01,2921.23,2605.01,2992.55,599.92,599.13,53.78,0000 0000 0000 0000 000000
2017-08-28 07:34:26,0.00,1.74,0.00,22.58,26.30,28.97,13.99,44.83,1020.49,2037.00,2921.00,2605.00,2992.05,600.09,599.15,53.83,0000 0000 0000 0000 000000
2017-08-28 07:39:28,0.00,1.74,0.00,22.59,26.33,29.01,13.95,44.82,1020.48,2037.00,2920.99,2604.97,2992.00,599.96,599.17,53.88,0000 0000 0000 0000 000000
2017-08-28 07:44:29,0.02,1.74,0.00,22.61,26.36,29.03,13.91,44.78,1020.49,2036.99,2920.87,2604.67,2991.98,599.92,598.97,53.93,0000 0000 0000 0000 000000
2017-08-28 07:49:31,0.01,1.74,0.00,22.62,26.39,29.06,13.95,44.81,1020.48,2036.91,2920.46,2604.20,2991.78,599.72,598.80,53.98,0000 0000 0000 0000 000000
2017-08-28 07:54:32,-0.04,1.74,0.00,22.64,26.42,29.08,13.97,44.75,1020.49,2036.51,2920.09,2604.02,2991.17,600.11,599.13,54.04,0000 0000 0000 0000 000000
2017-08-28 07:59:33,-0.01,1.74,0.00,22.65,26.45,29.12,13.93,44.79,1020.51,2036.14,2920.01,2604.01,2991.01,600.02,599.01,54.09,0000 0000 0000 0000 000000
2017-08-28 08:04:34,0.00,1.74,0.00,22.68,26.47,29.14,13.95,44.94,1020.52,2036.01,2920.00,2603.99,2991.00,600.06,599.01,54.14,0000 0000 0000 0000 000000
2017-08-28 08:09:35,0.00,1.74,0.00,22.69,26.50,29.17,14.02,44.90,1020.52,2036.00,2919.97,2603.97,2990.93,600.03,598.97,54.19,0000 0000 0000 0000 000000
2017-08-28 08:14:37,0.04,1.74,0.00,22.71,26.52,29.20,13.90,44.86,1020.52,2036.00,2919.39,2603.66,2990.42,599.78,598.72,54.24,0000 0000 0000 0000 000000
2017-08-28 08:19:38,0.01,1.74,0.00,22.73,26.55,29.22,13.96,44.85,1020.51,2036.00,2919.05,2603.19,2990.02,599.86,598.70,54.29,0000 0000 0000 0000 000000
2017-08-28 08:24:39,-0.00,1.75,0.00,22.75,26.57,29.24,13.98,44.83,1020.52,2036.00,2919.00,2603.03,2990.00,600.01,598.76,54.34,0000 0000 0000 0000 000000
2017-08-28 08:29:40,-0.00,1.75,0.00,22.77,26.59,29.27,13.96,44.74,1020.52,2035.97,2918.99,2603.01,2989.99,600.10,598.88,54.39,0000 0000 0000 0000 000000
2017-08-28 08:34:41,-0.01,1.74,0.00,22.78,26.62,29.29,13.94,44.91,1020.52,2035.86,2918.92,2603.00,2989.90,599.85,598.59,54.44,0000 0000 0000 0000 000000
2017-08-28 08:39:43,-0.00,1.74,0.00,22.80,26.64,29.31,13.97,44.88,1020.52,2035.43,2918.37,2602.98,2989.28,599.99,598.65,54.49,0000 0000 0000 0000 000000
2017-08-28 08:44:44,-0.02,1.74,0.00,22.83,26.66,29.33,13.91,44.83,1020.50,2035.09,2918.05,2602.89,2989.03,600.01,598.67,54.54,0000 0000 0000 0000 000000
2017-08-28 08:49:45,0.01,1.74,0.00,22.82,26.69,29.36,13.88,44.92,1020.45,2035.04,2918.00,2602.62,2989.00,599.85,598.49,54.59,0000 0000 0000 0000 000000
2017-08-28 08:54:46,0.01,1.74,0.00,22.84,26.71,29.38,14.00,44.98,1020.47,2035.01,2918.00,2602.13,2988.99,600.04,598.72,54.64,0000 0000 0000 0000 000000
2017-08-28 08:59:48,0.01,1.74,0.00,22.86,26.73,29.41,13.93,44.96,1020.52,2035.00,2917.97,2602.02,2988.83,599.92,598.55,54.69,0000 0000 0000 0000 000000
2017-08-28 09:04:49,0.01,1.74,0.00,22.88,26.75,29.43,13.97,44.96,1020.52,2035.00,2917.90,2602.00,2988.46,599.72,598.16,54.74,0000 0000 0000 0000 000000
2017-08-28 09:09:51,0.01,1.75,0.00,22.90,26.77,29.45,13.94,44.96,1020.52,2034.99,2917.46,2602.00,2988.03,600.22,598.62,54.79,0000 0000 0000 0000 000000
2017-08-28 09:14:52,0.00,1.75,0.00,22.92,26.80,29.47,13.87,44.73,1020.52,2034.97,2917.11,2602.00,2988.00,599.85,598.33,54.84,0000 0000 0000 0000 000000
2017-08-28 09:19:53,-0.00,1.75,0.00,22.92,26.82,29.49,13.94,44.80,1020.52,2034.93,2917.01,2601.98,2988.00,599.93,598.50,54.89,0000 0000 0000 0000 000000
2017-08-28 09:24:55,-0.04,1.74,0.00,22.94,26.84,29.50,13.95,45.00,1020.52,2034.54,2917.00,2601.87,2987.99,599.99,598.48,54.94,0000 0000 0000 0000 000000
2017-08-28 09:29:56,0.01,1.74,0.00,22.94,26.86,29.52,13.92,44.94,1020.51,2034.34,2916.94,2601.29,2987.74,599.71,598.14,55.00,0000 0000 0000 0000 000000
2017-08-28 09:34:57,-0.00,1.74,0.00,22.97,26.88,29.55,13.87,44.93,1020.51,2034.05,2916.72,2601.04,2987.13,599.83,598.24,55.05,0000 0000 0000 0000 000000
2017-08-28 09:39:59,0.00,1.74,0.00,22.97,26.90,29.57,14.05,45.08,1020.51,2034.01,2916.11,2601.00,2987.01,600.62,599.06,55.10,0000 0000 0000 0000 000000
2017-08-28 09:45:00,0.00,1.74,0.00,22.99,26.92,29.59,13.91,44.92,1020.51,2034.01,2916.04,2601.00,2987.00,599.74,598.08,55.15,0000 0000 0000 0000 000000
2017-08-28 09:50:02,0.00,1.74,0.00,23.02,26.94,29.60,13.95,44.80,1020.49,2034.00,2916.00,2601.00,2986.99,599.94,598.30,55.20,0000 0000 0000 0000 000000
2017-08-28 09:55:03,0.00,1.74,0.00,23.02,26.96,29.62,14.01,44.98,1020.48,2034.00,2916.00,2600.98,2986.92,600.05,598.21,55.25,0000 0000 0000 0000 000000
2017-08-28 10:00:04,0.01,1.74,0.00,23.03,26.97,29.64,13.91,44.89,1020.49,2033.99,2915.99,2600.94,2986.62,600.02,598.26,55.30,0000 0000 0000 0000 000000
2017-08-28 10:05:05,0.02,1.75,0.00,23.05,27.00,29.67,13.97,44.86,1020.51,2033.98,2915.80,2600.69,2986.06,600.04,598.27,55.35,0000 0000 0000 0000 000000
2017-08-28 10:10:06,0.02,1.75,0.00,23.06,27.02,29.69,13.98,44.78,1020.51,2033.97,2915.23,2600.25,2986.00,599.96,598.12,55.40,0000 0000 0000 0000 000000
2017-08-28 10:15:08,0.00,1.75,0.00,23.08,27.03,29.70,13.93,44.77,1020.52,2033.94,2915.05,2600.06,2986.00,599.96,598.23,55.45,0000 0000 0000 0000 000000
2017-08-28 10:20:09,-0.01,1.75,0.00,23.09,27.05,29.72,13.92,44.65,1020.51,2033.81,2915.02,2600.01,2986.00,600.05,598.11,55.50,0000 0000 0000 0000 000000
2017-08-28 10:25:10,0.00,1.75,0.00,23.11,27.07,29.73,13.98,44.80,1020.51,2033.72,2915.00,2600.01,2985.96,599.70,597.80,55.55,0000 0000 0000 0000 000000
2017-08-28 10:30:12,-0.03,1.75,0.00,23.12,27.09,29.75,14.01,44.73,1020.52,2033.50,2915.00,2600.00,2985.87,600.38,598.40,55.60,0000 0000 0000 0000 000000
2017-08-28 10:35:13,-0.00,1.74,0.00,23.15,27.10,29.76,13.98,44.80,1020.52,2033.22,2914.96,2600.00,2985.33,599.93,597.98,55.65,0000 0000 0000 0000 000000
2017-08-28 10:40:15,-0.00,1.75,0.00,23.17,27.12,29.79,13.90,44.77,1020.52,2033.16,2914.63,2599.99,2985.11,599.93,597.88,55.70,0000 0000 0000 0000 000000
2017-08-28 10:45:16,0.00,1.75,0.00,23.18,27.14,29.81,13.91,44.82,1020.52,2033.07,2914.14,2599.94,2985.00,600.17,598.08,55.75,0000 0000 0000 0000 000000
2017-08-28 10:50:17,0.00,1.75,0.00,23.19,27.16,29.83,14.05,44.95,1020.52,2033.01,2914.04,2599.84,2985.00,600.11,597.99,55.80,0000 0000 0000 0000 000000
2017-08-28 10:55:18,0.02,1.75,0.00,23.21,27.17,29.85,13.91,44.73,1020.52,2033.00,2914.01,2599.50,2984.99,599.87,597.78,55.85,0000 0000 0000 0000 000000
2017-08-28 11:00:20,0.00,1.75,0.00,23.23,27.20,29.87,13.90,44.75,1020.52,2033.00,2913.99,2599.06,2984.89,600.02,597.90,55.91,0000 0000 0000 0000 000000
2017-08-28 11:05:21,0.02,1.75,0.00,23.24,27.21,29.88,13.99,44.69,1020.52,2033.00,2913.80,2599.00,2984.31,600.15,597.97,55.96,0000 0000 0000 0000 000000
2017-08-28 11:10:23,0.01,1.75,0.00,23.25,27.22,29.90,13.92,44.69,1020.51,2033.00,2913.11,2599.00,2984.02,599.94,597.74,56.01,0000 0000 0000 0000 000000
2017-08-28 11:15:25,0.00,1.75,0.00,23.26,27.25,29.92,13.91,44.58,1020.47,2033.00,2913.00,2598.99,2984.00,599.92,597.61,56.06,0000 0000 0000 0000 000000
2017-08-28 11:20:26,0.00,1.75,0.00,23.27,27.26,29.94,13.99,44.69,1020.40,2033.00,2913.00,2598.98,2984.00,599.92,597.71,56.11,0000 0000 0000 0000 000000
2017-08-28 11:25:27,0.00,1.75,0.00,23.29,27.27,29.95,13.87,44.63,1020.35,2033.00,2912.99,2598.86,2983.97,599.70,597.30,56.16,0000 0000 0000 0000 000000
2017-08-28 11:30:28,0.03,1.75,0.00,23.30,27.30,29.97,13.92,44.77,1020.34,2032.96,2912.78,2598.38,2983.54,599.91,597.49,56.21,0000 0000 0000 0000 000000
2017-08-28 11:35:30,0.01,1.75,0.00,23.31,27.31,29.97,13.91,44.73,1020.43,2032.89,2912.15,2598.04,2983.04,599.77,597.54,56.26,0000 0000 0000 0000 000000
2017-08-28 11:40:31,-0.01,1.75,0.00,23.32,27.32,30.00,13.95,44.78,1020.47,2032.71,2912.01,2598.00,2983.00,599.92,597.65,56.31,0000 0000 0000 0000 000000
2017-08-28 11:45:32,-0.04,1.75,0.00,23.33,27.34,30.01,13.97,44.89,1020.50,2032.41,2912.00,2598.00,2983.00,599.98,597.71,56.36,0000 0000 0000 0000 000000
2017-08-28 11:50:34,-0.01,1.75,0.00,23.34,27.35,30.03,13.94,44.88,1020.47,2032.18,2911.99,2597.98,2982.90,599.95,597.50,56.41,0000 0000 0000 0000 000000
2017-08-28 11:55:35,0.01,1.75,0.00,23.35,27.37,30.04,14.00,44.88,1020.42,2032.07,2911.90,2597.96,2982.54,600.05,597.64,56.46,0000 0000 0000 0000 000000
2017-08-28 12:00:36,0.01,1.75,0.00,23.37,27.38,30.05,13.90,44.76,1020.40,2032.04,2911.43,2597.85,2982.14,599.80,597.22,56.51,0000 0000 0000 0000 000000
2017-08-28 12:05:37,0.02,1.75,0.00,23.38,27.40,30.06,13.96,44.76,1020.42,2032.01,2911.07,2597.50,2982.02,599.71,597.17,56.56,0000 0000 0000 0000 000000
2017-08-28 12:10:39,0.01,1.75,0.00,23.40,27.42,30.09,13.82,44.53,1020.29,2032.04,2911.01,2597.27,2982.00,599.33,596.82,56.61,0000 0000 0000 0000 000000
2017-08-28 12:15:40,0.00,1.75,0.00,23.40,27.43,30.09,13.92,44.72,1020.20,2032.02,2911.00,2597.05,2982.00,599.89,597.15,56.66,0000 0000 0000 0000 000000
2017-08-28 12:20:41,0.00,1.75,0.00,23.42,27.45,30.10,13.93,44.63,1020.24,2032.00,2910.92,2597.00,2981.95,600.05,597.32,56.71,0000 0000 0000 0000 000000
2017-08-28 12:25:42,0.01,1.75,0.00,23.44,27.46,30.12,13.89,44.70,1020.21,2032.00,2910.60,2597.00,2981.70,599.52,596.76,56.76,0000 0000 0000 0000 000000
2017-08-28 12:30:43,0.01,1.75,0.00,23.45,27.47,30.14,13.88,44.48,1020.12,2032.00,2910.18,2597.00,2981.24,599.71,596.87,56.81,0000 0000 0000 0000 000000
2017-08-28 12:35:44,0.00,1.75,0.00,23.46,27.49,30.12,13.92,44.58,1020.05,2032.00,2910.01,2596.98,2981.04,599.75,596.86,56.87,0000 0000 0000 0000 000000
2017-08-28 12:40:46,0.00,1.75,0.00,23.47,27.50,30.16,13.99,44.63,1020.06,2032.00,2910.00,2596.90,2981.00,600.05,597.06,56.92,0000 0000 0000 0000 000000
2017-08-28 12:45:47,0.00,1.75,0.00,23.48,27.52,30.19,13.90,44.68,1020.05,2031.99,2910.00,2596.68,2981.00,599.73,596.85,56.97,0000 0000 0000 0000 000000
2017-08-28 12:50:49,0.01,1.75,0.00,23.48,27.53,30.19,13.93,44.53,1020.05,2031.99,2909.99,2596.45,2981.00,599.62,596.67,57.02,0000 0000 0000 0000 000000
2017-08-28 12:55:50,0.01,1.75,0.00,23.49,27.55,30.21,13.91,44.48,1020.05,2031.97,2909.80,2596.05,2980.88,599.89,597.00,57.07,0000 0000 0000 0000 000000